| time (UTC) | temp F | wind direction | speed MPH | gust MPH | rain 1hr in | rain 24hr in | rain mn in | humidity % | barometer mb |
| 20260901075118 | 80 | 161 | 0.0 | 3.0 | 0.00 | 0.00 | 0.00 | 86 | 1014.7 |
| 20260901074549 | 80 | 161 | 1.0 | 4.0 | 0.00 | 0.00 | 0.00 | 85 | 1014.6 |
| 20260901074100 | 80 | 159 | 2.0 | 4.0 | 0.00 | 0.00 | 0.00 | 85 | 1014.7 |
| 20260901073100 | 80 | 159 | 1.0 | 3.0 | 0.00 | 0.00 | 0.00 | 85 | 1014.7 |
| 20260901072603 | 81 | 160 | 0.0 | 2.0 | 0.00 | 0.00 | 0.00 | 85 | 1014.9 |
| 20260901071633 | 81 | 161 | 2.0 | 5.0 | 0.00 | 0.00 | 0.00 | 85 | 1014.9 |
| 20260901071041 | 81 | 161 | 2.0 | 4.0 | 0.00 | 0.00 | 0.00 | 85 | 1014.9 |
| 20260901070654 | 81 | 161 | 2.0 | 3.0 | 0.00 | 0.00 | 0.00 | 85 | 1014.9 |
| 20260901070053 | 81 | 155 | 2.0 | 3.0 | 0.00 | 0.00 | 0.00 | 85 | 1015.0 |
| 20260901065604 | 81 | 153 | 2.0 | 6.0 | 0.00 | 0.00 | 0.00 | 85 | 1015.1 |
| 20260901065046 | 81 | 153 | 2.0 | 6.0 | 0.00 | 0.00 | 0.00 | 84 | 1015.0 |
| 20260901064544 | 81 | 155 | 3.0 | 6.0 | 0.00 | 0.00 | 0.00 | 84 | 1015.0 |
| 20260901064054 | 81 | 159 | 3.0 | 6.0 | 0.00 | 0.00 | 0.00 | 84 | 1015.0 |
| 20260901063545 | 81 | 150 | 3.0 | 5.0 | 0.00 | 0.00 | 0.00 | 84 | 1015.0 |
| 20260901063057 | 81 | 148 | 2.0 | 5.0 | 0.00 | 0.00 | 0.00 | 84 | 1015.0 |
| 20260901062607 | 81 | 150 | 2.0 | 5.0 | 0.00 | 0.00 | 0.00 | 83 | 1015.0 |
| 20260901062122 | 82 | 150 | 2.0 | 5.0 | 0.00 | 0.00 | 0.00 | 83 | 1014.9 |
| 20260901061613 | 82 | 151 | 3.0 | 5.0 | 0.00 | 0.00 | 0.00 | 83 | 1014.9 |
| 20260901061042 | 82 | 154 | 3.0 | 6.0 | 0.00 | 0.00 | 0.00 | 83 | 1014.8 |
| 20260901060552 | 82 | 154 | 3.0 | 6.0 | 0.00 | 0.00 | 0.00 | 83 | 1014.8 |
| 20260901060045 | 82 | 152 | 4.0 | 6.0 | 0.00 | 0.00 | 0.00 | 83 | 1014.8 |
| 20260901055623 | 82 | 166 | 5.0 | 6.0 | 0.00 | 0.00 | 0.00 | 83 | 1014.7 |
| 20260901055045 | 82 | 166 | 4.0 | 5.0 | 0.00 | 0.00 | 0.00 | 82 | 1014.7 |
| 20260901054544 | 82 | 169 | 3.0 | 5.0 | 0.00 | 0.00 | 0.00 | 82 | 1014.6 |
| 20260901054053 | 82 | 169 | 4.0 | 5.0 | 0.00 | 0.00 | 0.00 | 82 | 1014.5 |
| 20260901053603 | 82 | 173 | 4.0 | 6.0 | 0.00 | 0.00 | 0.00 | 82 | 1014.5 |
| 20260901053056 | 82 | 178 | 3.0 | 6.0 | 0.00 | 0.00 | 0.00 | 82 | 1014.4 |
| 20260901052546 | 83 | 187 | 3.0 | 7.0 | 0.00 | 0.00 | 0.00 | 82 | 1014.4 |
| 20260901052118 | 83 | 192 | 4.0 | 8.0 | 0.00 | 0.00 | 0.00 | 82 | 1014.4 |
| 20260901051550 | 83 | 182 | 5.0 | 8.0 | 0.00 | 0.00 | 0.00 | 82 | 1014.4 |
| 20260901051039 | 83 | 177 | 5.0 | 8.0 | 0.00 | 0.00 | 0.00 | 81 | 1014.4 |
| 20260901050550 | 83 | 177 | 6.0 | 8.0 | 0.00 | 0.00 | 0.00 | 81 | 1014.4 |
| 20260901050048 | 83 | 187 | 5.0 | 7.0 | 0.00 | 0.00 | 0.00 | 81 | 1014.3 |
| 20260901045547 | 83 | 183 | 5.0 | 7.0 | 0.00 | 0.00 | 0.00 | 81 | 1014.3 |
| 20260901044611 | 83 | 178 | 6.0 | 8.0 | 0.00 | 0.00 | 0.00 | 80 | 1014.3 |
| 20260901044122 | 83 | 179 | 5.0 | 8.0 | 0.00 | 0.00 | 0.00 | 80 | 1014.3 |
| 20260901043634 | 84 | 186 | 5.0 | 8.0 | 0.00 | 0.00 | 0.00 | 79 | 1014.2 |
| 20260901043056 | 84 | 179 | 5.0 | 9.0 | 0.00 | 0.00 | 0.00 | 79 | 1014.2 |
| 20260901042606 | 84 | 187 | 5.0 | 9.0 | 0.00 | 0.00 | 0.00 | 78 | 1014.3 |
| 20260901041607 | 84 | 190 | 6.0 | 9.0 | 0.00 | 0.00 | 0.00 | 77 | 1014.2 |
| 20260901041111 | 84 | 197 | 5.0 | 9.0 | 0.00 | 0.00 | 0.00 | 76 | 1014.1 |
| 20260901040622 | 84 | 200 | 5.0 | 8.0 | 0.00 | 0.00 | 0.00 | 74 | 1014.1 |
| 20260901040053 | 85 | 188 | 4.0 | 7.0 | 0.00 | 0.00 | 0.00 | 72 | 1014.1 |
| 20260901035637 | 85 | 183 | 3.0 | 7.0 | 0.00 | 0.00 | 0.00 | 71 | 1014.1 |
| 20260901035044 | 85 | 174 | 3.0 | 7.0 | 0.00 | 0.00 | 0.00 | 70 | 1014.1 |
| 20260901034151 | 85 | 167 | 4.0 | 7.0 | 0.00 | 0.00 | 0.00 | 69 | 1014.1 |
| 20260901033635 | 86 | 170 | 5.0 | 6.0 | 0.00 | 0.00 | 0.00 | 69 | 1014.1 |
| 20260901033101 | 86 | 173 | 4.0 | 6.0 | 0.00 | 0.00 | 0.00 | 68 | 1014.1 |
| 20260901032614 | 86 | 180 | 5.0 | 8.0 | 0.00 | 0.00 | 0.00 | 67 | 1013.9 |
| 20260901031615 | 86 | 165 | 5.0 | 9.0 | 0.00 | 0.00 | 0.00 | 66 | 1013.9 |
| 20260901031120 | 86 | 155 | 5.0 | 9.0 | 0.00 | 0.00 | 0.00 | 66 | 1013.8 |
| 20260901030636 | 86 | 140 | 6.0 | 10.0 | 0.00 | 0.00 | 0.00 | 66 | 1013.8 |
| 20260901025606 | 86 | 150 | 6.0 | 10.0 | 0.00 | 0.00 | 0.00 | 66 | 1013.8 |
| 20260901024635 | 87 | 150 | 4.0 | 8.0 | 0.00 | 0.00 | 0.00 | 65 | 1013.5 |
| 20260901024118 | 87 | 153 | 5.0 | 8.0 | 0.00 | 0.00 | 0.00 | 65 | 1013.4 |
| 20260901023631 | 87 | 150 | 5.0 | 8.0 | 0.00 | 0.00 | 0.00 | 64 | 1013.2 |
| 20260901023052 | 87 | 148 | 4.0 | 9.0 | 0.00 | 0.00 | 0.00 | 65 | 1013.3 |
| 20260901022603 | 88 | 146 | 6.0 | 9.0 | 0.00 | 0.00 | 0.00 | 64 | 1013.1 |
| 20260901021627 | 88 | 160 | 5.0 | 8.0 | 0.00 | 0.00 | 0.00 | 64 | 1012.9 |
| 20260901021119 | 88 | 146 | 5.0 | 8.0 | 0.00 | 0.00 | 0.00 | 64 | 1013.0 |
| 20260901020142 | 89 | 148 | 4.0 | 10.0 | 0.00 | 0.00 | 0.00 | 64 | 1012.7 |
| 20260901015633 | 89 | 142 | 4.0 | 10.0 | 0.00 | 0.00 | 0.00 | 64 | 1012.8 |
| 20260901015136 | 89 | 147 | 6.0 | 11.0 | 0.00 | 0.00 | 0.00 | 64 | 1012.8 |
| 20260901014601 | 89 | 142 | 7.0 | 11.0 | 0.00 | 0.00 | 0.00 | 64 | 1012.8 |
| 20260901014051 | 89 | 142 | 5.0 | 9.0 | 0.00 | 0.00 | 0.00 | 64 | 1012.8 |
| 20260901013113 | 90 | 135 | 3.0 | 8.0 | 0.00 | 0.00 | 0.00 | 63 | 1012.8 |
| 20260901012622 | 90 | 132 | 5.0 | 10.0 | 0.00 | 0.00 | 0.00 | 63 | 1012.8 |
| 20260901012134 | 90 | 135 | 5.0 | 13.0 | 0.00 | 0.00 | 0.00 | 63 | 1012.8 |
| 20260901011602 | 90 | 150 | 6.0 | 13.0 | 0.00 | 0.00 | 0.00 | 62 | 1012.7 |
| 20260901011107 | 91 | 149 | 8.0 | 14.0 | 0.00 | 0.00 | 0.00 | 62 | 1012.6 |
| 20260901010111 | 91 | 140 | 10.0 | 15.0 | 0.00 | 0.00 | 0.00 | 61 | 1012.5 |
| 20260901005614 | 92 | 129 | 9.0 | 14.0 | 0.00 | 0.00 | 0.00 | 60 | 1012.5 |
| 20260901005125 | 92 | 146 | 8.0 | 14.0 | 0.00 | 0.00 | 0.00 | 59 | 1012.5 |
| 20260901004545 | 93 | 150 | 6.0 | 16.0 | 0.00 | 0.00 | 0.00 | 57 | 1012.5 |
| 20260901004102 | 93 | 163 | 7.0 | 13.0 | 0.00 | 0.00 | 0.00 | 55 | 1012.3 |
| 20260901003123 | 94 | 148 | 7.0 | 11.0 | 0.00 | 0.00 | 0.00 | 51 | 1012.4 |
| 20260901002635 | 95 | 149 | 6.0 | 11.0 | 0.00 | 0.00 | 0.00 | 50 | 1012.4 |
| 20260901002134 | 95 | 136 | 6.0 | 11.0 | 0.00 | 0.00 | 0.00 | 50 | 1012.3 |
| 20260901001602 | 95 | 164 | 5.0 | 10.0 | 0.00 | 0.00 | 0.00 | 49 | 1012.3 |
| 20260901001053 | 95 | 150 | 5.0 | 10.0 | 0.00 | 0.00 | 0.00 | 48 | 1012.3 |
| 20260901000114 | 96 | 170 | 6.0 | 8.0 | 0.00 | 0.00 | 0.00 | 47 | 1012.3 |
| 20260831235556 | 96 | 148 | 4.0 | 8.0 | 0.00 | 0.00 | 0.00 | 47 | 1012.3 |
| 20260831234630 | 96 | 141 | 2.0 | 9.0 | 0.00 | 0.00 | 0.00 | 47 | 1012.3 |
| 20260831234136 | 96 | 142 | 4.0 | 10.0 | 0.00 | 0.00 | 0.00 | 46 | 1012.2 |
| 20260831233627 | 96 | 150 | 4.0 | 9.0 | 0.00 | 0.00 | 0.00 | 46 | 1012.2 |
| 20260831232549 | 97 | 190 | 3.0 | 6.0 | 0.00 | 0.00 | 0.00 | 45 | 1012.2 |
| 20260831231611 | 97 | 153 | 7.0 | 9.0 | 0.00 | 0.00 | 0.00 | 44 | 1012.3 |
| 20260831231103 | 97 | 172 | 2.0 | 11.0 | 0.00 | 0.00 | 0.00 | 45 | 1012.2 |
| 20260831230127 | 97 | 165 | 7.0 | 14.0 | 0.00 | 0.00 | 0.00 | 45 | 1012.3 |
| 20260831225542 | 97 | 174 | 4.0 | 14.0 | 0.00 | 0.00 | 0.00 | 46 | 1012.4 |
| 20260831225155 | 97 | 150 | 5.0 | 10.0 | 0.00 | 0.00 | 0.00 | 46 | 1012.3 |
| 20260831224555 | 97 | 178 | 4.0 | 9.0 | 0.00 | 0.00 | 0.00 | 45 | 1012.3 |
| 20260831224108 | 97 | 99 | 3.0 | 9.0 | 0.00 | 0.00 | 0.00 | 46 | 1012.3 |
| 20260831223126 | 97 | 121 | 6.0 | 10.0 | 0.00 | 0.00 | 0.00 | 47 | 1012.4 |
| 20260831222638 | 97 | 159 | 8.0 | 12.0 | 0.00 | 0.00 | 0.00 | 47 | 1012.4 |
| 20260831222118 | 97 | 159 | 3.0 | 10.0 | 0.00 | 0.00 | 0.00 | 47 | 1012.5 |
| 20260831221545 | 97 | 178 | 5.0 | 10.0 | 0.00 | 0.00 | 0.00 | 48 | 1012.6 |
| 20260831221054 | 96 | 136 | 5.0 | 7.0 | 0.00 | 0.00 | 0.00 | 47 | 1012.5 |
| 20260831220606 | 96 | 140 | 4.0 | 9.0 | 0.00 | 0.00 | 0.00 | 48 | 1012.6 |
| 20260831220132 | 96 | 180 | 6.0 | 9.0 | 0.00 | 0.00 | 0.00 | 47 | 1012.6 |
| 20260831215539 | 96 | 151 | 7.0 | 11.0 | 0.00 | 0.00 | 0.00 | 47 | 1012.6 |
| 20260831215051 | 97 | 143 | 7.0 | 11.0 | 0.00 | 0.00 | 0.00 | 47 | 1012.6 |
| 20260831214633 | 97 | 89 | 6.0 | 9.0 | 0.00 | 0.00 | 0.00 | 46 | 1012.7 |
| 20260831214145 | 98 | 123 | 3.0 | 11.0 | 0.00 | 0.00 | 0.00 | 47 | 1012.7 |
| 20260831213636 | 97 | 117 | 5.0 | 11.0 | 0.00 | 0.00 | 0.00 | 47 | 1012.8 |
| 20260831213056 | 97 | 130 | 5.0 | 10.0 | 0.00 | 0.00 | 0.00 | 47 | 1012.8 |
| 20260831212541 | 97 | 204 | 9.0 | 10.0 | 0.00 | 0.00 | 0.00 | 46 | 1012.8 |
| 20260831211610 | 97 | 163 | 5.0 | 12.0 | 0.00 | 0.00 | 0.00 | 46 | 1012.9 |
| 20260831211114 | 97 | 167 | 5.0 | 14.0 | 0.00 | 0.00 | 0.00 | 46 | 1012.9 |
| 20260831210125 | 97 | 257 | 4.0 | 7.0 | 0.00 | 0.00 | 0.00 | 47 | 1013.0 |
| 20260831205631 | 97 | 163 | 2.0 | 9.0 | 0.00 | 0.00 | 0.00 | 47 | 1013.1 |
| 20260831205114 | 97 | 124 | 5.0 | 15.0 | 0.00 | 0.00 | 0.00 | 45 | 1013.3 |
| 20260831204539 | 97 | 182 | 7.0 | 15.0 | 0.00 | 0.00 | 0.00 | 44 | 1013.3 |
| 20260831204051 | 97 | 142 | 7.0 | 11.0 | 0.00 | 0.00 | 0.00 | 45 | 1013.4 |
| 20260831203113 | 97 | 142 | 6.0 | 10.0 | 0.00 | 0.00 | 0.00 | 46 | 1013.6 |
| 20260831202625 | 97 | 173 | 3.0 | 9.0 | 0.00 | 0.00 | 0.00 | 47 | 1013.6 |
| 20260831202129 | 96 | 198 | 4.0 | 10.0 | 0.00 | 0.00 | 0.00 | 47 | 1013.7 |
| 20260831201601 | 96 | 113 | 2.0 | 6.0 | 0.00 | 0.00 | 0.00 | 48 | 1013.8 |
| 20260831201113 | 96 | 90 | 3.0 | 11.0 | 0.00 | 0.00 | 0.00 | 48 | 1014.0 |
| 20260831200614 | 96 | 123 | 6.0 | 16.0 | 0.00 | 0.00 | 0.00 | 47 | 1014.0 |
| 20260831200046 | 96 | 148 | 9.0 | 16.0 | 0.00 | 0.00 | 0.00 | 48 | 1014.1 |
| 20260831195558 | 96 | 92 | 3.0 | 12.0 | 0.00 | 0.00 | 0.00 | 50 | 1014.1 |
| 20260831194621 | 95 | 78 | 6.0 | 11.0 | 0.00 | 0.00 | 0.00 | 50 | 1014.3 |
| 20260831194134 | 95 | 92 | 3.0 | 12.0 | 0.00 | 0.00 | 0.00 | 52 | 1014.4 |
| 20260831193638 | 95 | 161 | 2.0 | 9.0 | 0.00 | 0.00 | 0.00 | 52 | 1014.4 |
| 20260831192543 | 95 | 98 | 7.0 | 10.0 | 0.00 | 0.00 | 0.00 | 51 | 1014.6 |
| 20260831191545 | 95 | 180 | 5.0 | 12.0 | 0.00 | 0.00 | 0.00 | 52 | 1014.7 |
| 20260831191056 | 95 | 130 | 7.0 | 12.0 | 0.00 | 0.00 | 0.00 | 54 | 1014.8 |
| 20260831190115 | 94 | 128 | 5.0 | 10.0 | 0.00 | 0.00 | 0.00 | 54 | 1014.8 |
| 20260831185623 | 94 | 76 | 4.0 | 11.0 | 0.00 | 0.00 | 0.00 | 54 | 1014.9 |
| 20260831185128 | 94 | 168 | 6.0 | 11.0 | 0.00 | 0.00 | 0.00 | 54 | 1014.9 |
| 20260831184558 | 94 | 181 | 1.0 | 10.0 | 0.00 | 0.00 | 0.00 | 53 | 1015.0 |
| 20260831184110 | 94 | 171 | 7.0 | 10.0 | 0.00 | 0.00 | 0.00 | 53 | 1015.1 |
| 20260831183609 | 94 | 99 | 3.0 | 9.0 | 0.00 | 0.00 | 0.00 | 55 | 1015.1 |
| 20260831183039 | 94 | 134 | 2.0 | 10.0 | 0.00 | 0.00 | 0.00 | 55 | 1015.2 |
| 20260831182646 | 94 | 146 | 5.0 | 10.0 | 0.00 | 0.00 | 0.00 | 55 | 1015.2 |
| 20260831182134 | 94 | 142 | 2.0 | 8.0 | 0.00 | 0.00 | 0.00 | 56 | 1015.4 |
| 20260831181601 | 94 | 148 | 3.0 | 11.0 | 0.00 | 0.00 | 0.00 | 56 | 1015.4 |
| 20260831181106 | 94 | 132 | 5.0 | 9.0 | 0.00 | 0.00 | 0.00 | 57 | 1015.4 |
| 20260831180128 | 93 | 150 | 5.0 | 11.0 | 0.00 | 0.00 | 0.00 | 55 | 1015.6 |
| 20260831175543 | 93 | 172 | 2.0 | 12.0 | 0.00 | 0.00 | 0.00 | 56 | 1015.6 |
| 20260831174606 | 93 | 88 | 5.0 | 13.0 | 0.00 | 0.00 | 0.00 | 59 | 1015.8 |
| 20260831174058 | 93 | 113 | 4.0 | 13.0 | 0.00 | 0.00 | 0.00 | 58 | 1015.8 |
| 20260831173119 | 92 | 74 | 5.0 | 11.0 | 0.00 | 0.00 | 0.00 | 60 | 1015.8 |
| 20260831172630 | 92 | 26 | 3.0 | 9.0 | 0.00 | 0.00 | 0.00 | 61 | 1015.9 |
| 20260831172136 | 91 | 99 | 3.0 | 9.0 | 0.00 | 0.00 | 0.00 | 62 | 1015.9 |
| 20260831171603 | 91 | 156 | 2.0 | 9.0 | 0.00 | 0.00 | 0.00 | 63 | 1016.0 |
| 20260831171119 | 90 | 115 | 3.0 | 7.0 | 0.00 | 0.00 | 0.00 | 63 | 1016.0 |
| 20260831170120 | 91 | 157 | 2.0 | 9.0 | 0.00 | 0.00 | 0.00 | 64 | 1016.2 |
| 20260831165633 | 91 | 76 | 2.0 | 7.0 | 0.00 | 0.00 | 0.00 | 65 | 1016.2 |
| 20260831165133 | 90 | 189 | 1.0 | 7.0 | 0.00 | 0.00 | 0.00 | 64 | 1016.3 |
| 20260831164544 | 90 | 131 | 2.0 | 8.0 | 0.00 | 0.00 | 0.00 | 65 | 1016.3 |
| 20260831164048 | 90 | 80 | 4.0 | 9.0 | 0.00 | 0.00 | 0.00 | 65 | 1016.4 |
| 20260831163118 | 90 | 138 | 2.0 | 8.0 | 0.00 | 0.00 | 0.00 | 69 | 1016.4 |
| 20260831162613 | 89 | 139 | 4.0 | 9.0 | 0.00 | 0.00 | 0.00 | 68 | 1016.4 |
| 20260831161615 | 89 | 123 | 3.0 | 12.0 | 0.00 | 0.00 | 0.00 | 68 | 1016.3 |
| 20260831161127 | 89 | 144 | 4.0 | 12.0 | 0.00 | 0.00 | 0.00 | 69 | 1016.3 |
| 20260831160147 | 88 | 153 | 2.0 | 10.0 | 0.00 | 0.00 | 0.00 | 70 | 1016.4 |
| 20260831155633 | 88 | 221 | 3.0 | 10.0 | 0.00 | 0.00 | 0.00 | 70 | 1016.4 |
| 20260831155131 | 88 | 279 | 4.0 | 8.0 | 0.00 | 0.00 | 0.00 | 74 | 1016.3 |
| 20260831154541 | 87 | 205 | 5.0 | 8.0 | 0.00 | 0.00 | 0.00 | 74 | 1016.3 |
| 20260831154046 | 87 | 224 | 0.0 | 8.0 | 0.00 | 0.00 | 0.00 | 75 | 1016.3 |
| 20260831153114 | 86 | 241 | 4.0 | 8.0 | 0.00 | 0.00 | 0.00 | 76 | 1016.2 |
| 20260831152620 | 86 | 221 | 4.0 | 7.0 | 0.00 | 0.00 | 0.00 | 79 | 1016.2 |
| 20260831152136 | 86 | 227 | 3.0 | 8.0 | 0.00 | 0.00 | 0.00 | 79 | 1016.1 |
| 20260831151603 | 85 | 267 | 4.0 | 8.0 | 0.00 | 0.00 | 0.00 | 81 | 1016.1 |
| 20260831151108 | 85 | 245 | 5.0 | 8.0 | 0.00 | 0.00 | 0.00 | 82 | 1016.1 |
| 20260831150131 | 84 | 292 | 3.0 | 7.0 | 0.00 | 0.00 | 0.00 | 83 | 1016.2 |
| 20260831145543 | 84 | 248 | 3.0 | 7.0 | 0.00 | 0.00 | 0.00 | 84 | 1016.1 |
| 20260831144604 | 84 | 192 | 5.0 | 7.0 | 0.00 | 0.00 | 0.00 | 85 | 1016.2 |
| 20260831144118 | 84 | 201 | 0.0 | 7.0 | 0.00 | 0.00 | 0.00 | 85 | 1016.3 |
| 20260831143117 | 83 | 218 | 1.0 | 5.0 | 0.00 | 0.00 | 0.00 | 87 | 1016.2 |
| 20260831142629 | 83 | 231 | 1.0 | 4.0 | 0.00 | 0.00 | 0.00 | 88 | 1016.1 |
| 20260831142134 | 82 | 202 | 1.0 | 3.0 | 0.00 | 0.00 | 0.00 | 89 | 1016.0 |
| 20260831141602 | 82 | 202 | 0.0 | 5.0 | 0.00 | 0.00 | 0.00 | 89 | 1016.1 |
| 20260831141054 | 82 | 202 | 2.0 | 5.0 | 0.00 | 0.00 | 0.00 | 89 | 1016.0 |
| 20260831140054 | 81 | 158 | 0.0 | 0.0 | 0.00 | 0.00 | 0.00 | 90 | 1016.0 |
| 20260831135558 | 81 | 154 | 0.0 | 0.0 | 0.00 | 0.00 | 0.00 | 90 | 1015.9 |
| 20260831134630 | 80 | 153 | 0.0 | 0.0 | 0.00 | 0.00 | 0.00 | 91 | 1015.8 |
| 20260831134113 | 80 | 153 | 0.0 | 0.0 | 0.00 | 0.00 | 0.00 | 91 | 1015.7 |
| 20260831133625 | 79 | 153 | 0.0 | 0.0 | 0.00 | 0.00 | 0.00 | 92 | 1015.6 |
| 20260831132547 | 79 | 153 | 0.0 | 0.0 | 0.00 | 0.00 | 0.00 | 92 | 1015.5 |
| 20260831131610 | 78 | 153 | 0.0 | 0.0 | 0.00 | 0.00 | 0.00 | 92 | 1015.4 |
| 20260831131122 | 78 | 153 | 0.0 | 0.0 | 0.00 | 0.00 | 0.00 | 93 | 1015.4 |
| 20260831130627 | 78 | 152 | 0.0 | 0.0 | 0.00 | 0.00 | 0.00 | 93 | 1015.3 |
| 20260831130059 | 77 | 150 | 0.0 | 0.0 | 0.00 | 0.00 | 0.00 | 92 | 1015.3 |
| 20260831125610 | 77 | 150 | 0.0 | 0.0 | 0.00 | 0.00 | 0.00 | 92 | 1015.3 |
| 20260831124608 | 76 | 150 | 0.0 | 0.0 | 0.00 | 0.00 | 0.00 | 92 | 1015.3 |
| 20260831124114 | 77 | 150 | 0.0 | 0.0 | 0.00 | 0.00 | 0.00 | 92 | 1015.2 |
| 20260831123121 | 76 | 150 | 0.0 | 0.0 | 0.00 | 0.00 | 0.00 | 93 | 1015.1 |
| 20260831122626 | 76 | 151 | 0.0 | 0.0 | 0.00 | 0.00 | 0.00 | 93 | 1015.0 |
| 20260831122116 | 76 | 151 | 0.0 | 0.0 | 0.00 | 0.00 | 0.00 | 93 | 1015.0 |
| 20260831121547 | 76 | 151 | 0.0 | 0.0 | 0.00 | 0.00 | 0.00 | 93 | 1014.9 |
| 20260831121148 | 77 | 151 | 0.0 | 0.0 | 0.00 | 0.00 | 0.00 | 93 | 1014.8 |
| 20260831120543 | 76 | 152 | 0.0 | 0.0 | 0.00 | 0.00 | 0.00 | 92 | 1014.8 |
| 20260831120048 | 76 | 152 | 0.0 | 0.0 | 0.00 | 0.00 | 0.00 | 92 | 1014.8 |
| 20260831115558 | 76 | 152 | 0.0 | 0.0 | 0.00 | 0.00 | 0.00 | 92 | 1014.8 |
| 20260831114621 | 77 | 152 | 0.0 | 0.0 | 0.00 | 0.00 | 0.00 | 92 | 1014.7 |
| 20260831114133 | 77 | 152 | 0.0 | 0.0 | 0.00 | 0.00 | 0.00 | 92 | 1014.7 |
| 20260831113614 | 77 | 152 | 0.0 | 0.0 | 0.00 | 0.00 | 0.00 | 92 | 1014.7 |
| 20260831113042 | 77 | 152 | 0.0 | 0.0 | 0.00 | 0.00 | 0.00 | 91 | 1014.7 |
| 20260831112547 | 77 | 152 | 0.0 | 0.0 | 0.00 | 0.00 | 0.00 | 91 | 1014.7 |
| 20260831111621 | 77 | 152 | 0.0 | 0.0 | 0.00 | 0.00 | 0.00 | 91 | 1014.6 |
| 20260831111125 | 77 | 152 | 0.0 | 0.0 | 0.00 | 0.00 | 0.00 | 92 | 1014.6 |
| 20260831110631 | 77 | 151 | 0.0 | 0.0 | 0.00 | 0.00 | 0.00 | 92 | 1014.6 |
| 20260831110041 | 77 | 151 | 0.0 | 0.0 | 0.00 | 0.00 | 0.00 | 92 | 1014.6 |
| 20260831105545 | 77 | 151 | 0.0 | 0.0 | 0.00 | 0.00 | 0.00 | 92 | 1014.6 |
| 20260831105155 | 77 | 151 | 0.0 | 0.0 | 0.00 | 0.00 | 0.00 | 92 | 1014.6 |
| 20260831104554 | 77 | 151 | 0.0 | 0.0 | 0.00 | 0.00 | 0.00 | 92 | 1014.6 |
| 20260831104107 | 77 | 151 | 0.0 | 0.0 | 0.00 | 0.00 | 0.00 | 92 | 1014.6 |
| 20260831103617 | 77 | 151 | 0.0 | 0.0 | 0.00 | 0.00 | 0.00 | 92 | 1014.5 |
| 20260831103041 | 77 | 151 | 0.0 | 0.0 | 0.00 | 0.00 | 0.00 | 92 | 1014.5 |
| 20260831102650 | 77 | 151 | 0.0 | 0.0 | 0.00 | 0.00 | 0.00 | 92 | 1014.5 |
| 20260831102138 | 76 | 151 | 0.0 | 0.0 | 0.00 | 0.00 | 0.00 | 92 | 1014.5 |
| 20260831101602 | 76 | 151 | 0.0 | 0.0 | 0.00 | 0.00 | 0.00 | 92 | 1014.6 |
| 20260831101115 | 76 | 151 | 0.0 | 0.0 | 0.00 | 0.00 | 0.00 | 91 | 1014.5 |
| 20260831100054 | 76 | 151 | 0.0 | 0.0 | 0.00 | 0.00 | 0.00 | 91 | 1014.5 |
| 20260831095606 | 76 | 151 | 0.0 | 0.0 | 0.00 | 0.00 | 0.00 | 91 | 1014.5 |
| 20260831094609 | 76 | 150 | 0.0 | 0.0 | 0.00 | 0.00 | 0.00 | 91 | 1014.5 |
| 20260831094053 | 76 | 150 | 0.0 | 2.0 | 0.00 | 0.00 | 0.00 | 91 | 1014.5 |
| 20260831093605 | 77 | 150 | 0.0 | 5.0 | 0.00 | 0.00 | 0.00 | 91 | 1014.5 |
| 20260831093131 | 77 | 150 | 2.0 | 5.0 | 0.00 | 0.00 | 0.00 | 90 | 1014.5 |
| 20260831092644 | 77 | 150 | 1.0 | 6.0 | 0.00 | 0.00 | 0.00 | 89 | 1014.6 |
| 20260831092127 | 77 | 150 | 3.0 | 6.0 | 0.00 | 0.00 | 0.00 | 89 | 1014.6 |
| 20260831091557 | 77 | 175 | 1.0 | 3.0 | 0.00 | 0.00 | 0.00 | 89 | 1014.5 |
| 20260831091107 | 77 | 180 | 0.0 | 0.0 | 0.00 | 0.00 | 0.00 | 89 | 1014.4 |
| 20260831090109 | 77 | 180 | 0.0 | 0.0 | 0.00 | 0.00 | 0.00 | 89 | 1014.5 |
| 20260831085552 | 78 | 180 | 0.0 | 0.0 | 0.00 | 0.00 | 0.00 | 89 | 1014.5 |
| 20260831084613 | 78 | 180 | 0.0 | 0.0 | 0.00 | 0.00 | 0.00 | 89 | 1014.5 |
| 20260831084105 | 78 | 181 | 0.0 | 0.0 | 0.00 | 0.00 | 0.00 | 88 | 1014.5 |
| 20260831083114 | 78 | 181 | 0.0 | 0.0 | 0.00 | 0.00 | 0.00 | 88 | 1014.5 |
| 20260831082629 | 78 | 181 | 0.0 | 0.0 | 0.00 | 0.00 | 0.00 | 88 | 1014.5 |
| 20260831082134 | 78 | 181 | 0.0 | 0.0 | 0.00 | 0.00 | 0.00 | 88 | 1014.6 |
| 20260831081601 | 78 | 181 | 0.0 | 0.0 | 0.00 | 0.00 | 0.00 | 88 | 1014.7 |
| 20260831081112 | 78 | 181 | 0.0 | 0.0 | 0.00 | 0.00 | 0.00 | 88 | 1014.7 |
| 20260831080132 | 78 | 181 | 0.0 | 0.0 | 0.00 | 0.00 | 0.00 | 88 | 1014.7 |
| 20260831075637 | 78 | 182 | 0.0 | 0.0 | 0.00 | 0.00 | 0.00 | 88 | 1014.7 |